Location: Cabo di Oristano
(39.8500°N, 8.4333°E)
Time: 16:38:29
(UTC+00:00)

Nadezhda 4 Rocket - Pass Details

Date: 31 January 2023
Orbit: 948 x 993 km, 82.9° (Epoch: 31 March)

Event Time Altitude Azimuth Distance (km) Brightness Sun altitude
Rises 04:11:12 0° 175° (S) 3,683 7.1 -27.9°
Reaches altitude 10° 04:13:44 10° 173° (S) 2,742 6.4 -27.4°
Maximum altitude 04:19:56 64° 93° (E) 1,093 4.4 -26.2°
Drops below altitude 10° 04:26:12 10° 13° (NNE) 2,763 6.5 -25.0°
Sets 04:28:45 0° 11° (N) 3,714 7.1 -24.5°
